St. Paul, MN

5:38 AM CDT on May 28, 2018 (GMT -0500)
Saint Paul Downtown-Holman

Weather History for KSTP - October, 2012

Change the Weather History Date:

Wednesday, October 17, 2012

  Actual Average Record
Temperature  
Mean Temperature 56 °F -  
Max Temperature 64 °F 56 °F 73 °F (2017)
Min Temperature 48 °F 37 °F 28 °F (2004)
Degree Days  
Heating Degree Days 10    
Growing Degree Days 6 (Base 50)    
Moisture  
Dew Point 45 °F    
Average Humidity 72    
Maximum Humidity 93    
Minimum Humidity 49    
Precipitation  
Precipitation 0.00 in - - ()
Sea Level Pressure  
Sea Level Pressure 29.26 in    
Wind  
Wind Speed 8 mph (SW)    
Max Wind Speed 25 mph    
Max Gust Speed 33 mph    
Visibility 9 miles    
Events Rain    
Averages and records for this station are not official NWS values.
T = Trace of Precipitation, MM = Missing Value Source: NWS Daily Summary

Daily Weather History Graph

Daily Weather History Graph

Search for Another Location

Airport or City:

Astronomy

Oct. 17, 2012 Rise Set
Actual Time 7:31 AM CDT 6:23 PM CDT
Civil Twilight 7:01 AM CDT 6:52 PM CDT
Nautical Twilight 6:27 AM CDT 7:26 PM CDT
Astronomical Twilight 5:53 AM CDT 8:00 PM CDT
Moon 10:14 AM CDT (10/17) 7:51 PM CDT (10/17)
Length of Visible Light 11h 51m
Length of Day
10h 51m
Waxing Crescent, 7% of the Moon is Illuminated
Oct 17
Waxing Crescent
Oct 21
First Quarter
Oct 29
Full
Nov 6
Last Quarter
Nov 13
New

Hourly Weather History & Observations

Time (CDT) Temp. Dew Point Humidity Pressure Visibility Wind Dir Wind Speed Gust Speed Precip Events Conditions
12:53 AM 48.9 °F 46.0 °F 90% 29.36 in 9.0 mi Calm Calm - N/A   Clear
1:53 AM 50.0 °F 46.9 °F 89% 29.35 in 8.0 mi Calm Calm - N/A   Clear
2:53 AM 48.9 °F 46.9 °F 93% 29.34 in 8.0 mi East 3.5 mph - N/A   Clear
3:53 AM 50.0 °F 46.9 °F 89% 29.32 in 8.0 mi SSE 4.6 mph - N/A   Clear
4:53 AM 48.9 °F 46.9 °F 93% 29.30 in 6.0 mi Calm Calm - N/A   Clear
5:53 AM 51.1 °F 46.9 °F 86% 29.25 in 7.0 mi ESE 6.9 mph - N/A   Scattered Clouds
6:53 AM 52.0 °F 46.9 °F 83% 29.22 in 8.0 mi SE 4.6 mph - N/A   Mostly Cloudy
7:53 AM 54.0 °F 46.9 °F 77% 29.20 in 10.0 mi SSE 10.4 mph - N/A   Overcast
8:53 AM 55.0 °F 46.9 °F 74% 29.19 in 10.0 mi SSE 11.5 mph - 0.00 in   Overcast
9:53 AM 57.0 °F 48.9 °F 74% 29.16 in 10.0 mi SE 10.4 mph - 0.00 in   Scattered Clouds
10:53 AM 63.0 °F 48.0 °F 58% 29.16 in 10.0 mi South 15.0 mph 24.2 mph N/A   Clear
11:53 AM 60.1 °F 48.0 °F 64% 29.18 in 10.0 mi SW 19.6 mph 28.8 mph 0.00 in Rain Light Rain
12:23 PM 60.8 °F 50.0 °F 68% 29.20 in 10.0 mi SW 18.4 mph 32.2 mph 0.00 in   Overcast
12:53 PM 59.0 °F 48.9 °F 69% 29.21 in 10.0 mi WSW 12.7 mph 26.5 mph 0.00 in   Overcast
1:53 PM 57.0 °F 46.0 °F 67% 29.24 in 10.0 mi WSW 25.3 mph 33.4 mph N/A   Overcast
2:31 PM 57.2 °F 44.6 °F 63% 29.24 in 10.0 mi West 11.5 mph 20.7 mph N/A   Overcast
2:53 PM 57.9 °F 45.0 °F 62% 29.24 in 10.0 mi WSW 13.8 mph 19.6 mph N/A   Overcast
3:53 PM 59.0 °F 41.0 °F 51% 29.25 in 10.0 mi WSW 12.7 mph 25.3 mph N/A   Scattered Clouds
4:53 PM 59.0 °F 41.0 °F 51% 29.25 in 10.0 mi WSW 8.1 mph - N/A   Overcast
5:53 PM 57.9 °F 39.0 °F 49% 29.26 in 10.0 mi WSW 11.5 mph - N/A   Overcast
6:53 PM 55.9 °F 39.0 °F 53% 29.28 in 10.0 mi SW 8.1 mph - N/A   Overcast
7:53 PM 54.0 °F 43.0 °F 66% 29.29 in 10.0 mi WSW 15.0 mph - N/A   Overcast
8:20 PM 53.6 °F 44.6 °F 72% 29.30 in 10.0 mi WSW 17.3 mph - N/A   Overcast
8:53 PM 51.1 °F 43.0 °F 74% 29.30 in 10.0 mi West 16.1 mph 24.2 mph N/A   Overcast
9:53 PM 50.0 °F 42.1 °F 74% 29.29 in 10.0 mi WSW 10.4 mph - 0.00 in   Overcast
10:53 PM 50.0 °F 41.0 °F 71% 29.28 in 10.0 mi West 10.4 mph - N/A   Overcast
11:53 PM 48.0 °F 41.0 °F 77% 29.27 in 10.0 mi WSW 11.5 mph - N/A   Overcast